Location: Little Elm
(33.1626°N, 96.9375°W)
Time: 02:04:56
(UTC+00:00)

H-2A R/B - Pass Details

Date: 01 July 2022
Orbit: 491 x 536 km, 97.3° (Epoch: 01 April)

Event Time Altitude Azimuth Distance (km) Brightness Sun altitude
Rises 10:01:24 0° 40° (NE) 2,608 8.1 -14.8°
Reaches altitude 10° 10:05:19 10° 83° (E) 1,728 6.3 -14.1°
Maximum altitude 10:06:00 10° 93° (E) 1,704 6.0 -14.0°
Drops below altitude 10° 10:06:40 10° 104° (ESE) 1,730 5.9 -13.9°
Sets 10:10:36 0° 146° (SE) 2,621 6.2 -13.3°
